Regional Weather Roundup
Issued by NWS Newport/Morehead, NC

Current Version | Previous Version | Text Only | Print | Product List | Glossary On
Versions: 1 2 3 4 5 6 7 8 9 10 11 12 13 14 15 16 17 18 19 20 21 22 23 24 25 26 27 28 29 30 31 32 33 34 35 36 37 38 39 40 41 42 43 44 45 46 47 48 49 50
000 ASUS42 KMHX 231026 RWRMHX WEATHER ROUNDUP FOR EASTERN NORTH CAROLINA NATIONAL WEATHER SERVICE NEWPORT/MOREHEAD CITY NC 600 AM EDT WED AUG 23 2017 NOTE: "FAIR" INDICATES FEW OR NO CLOUDS BELOW 12,000 FEET WITH NO SIGNIFICANT WEATHER AND/OR OBSTRUCTIONS TO VISIBILITY NCZ015>017-031-032-045>047-102-103-231100- NORTH COAST CITY SKY/WX TMP DP RH WIND PRES REMARKS EDENTON PTCLDY 79 75 86 SW9 29.89S ELIZABETH CITY CLEAR 77 76 96 SW10 29.87F KITTY HAWK SUNNY 78 73 84 CALM 29.88S MANTEO CLEAR 78 74 87 SW13 29.90R $$ NCZ045>047-081-094-103-104-231100- CENTRAL COAST CITY SKY/WX TMP DP RH WIND PRES REMARKS FRISCO CLEAR 80 78 94 W8 29.91S $$ NCZ095-097-098-100-101-231100- SOUTHERN COAST CITY SKY/WX TMP DP RH WIND PRES REMARKS BEAUFORT MOCLDY 81 78 91 SW13 29.91S CEDAR ISLAND NOT AVBL JACKSONVILLE MOCLDY 77 76 96 SW7 29.91R PINEY ISLAND SUNNY N/A N/A N/A S6 29.91S WILMINGTON CLOUDY 79 75 87 W12 29.93R $$ NCZ011>013-027>030-043-044-078>080-089-090>093-098-231100- COASTAL PLAIN CITY SKY/WX TMP DP RH WIND PRES REMARKS AHOSKIE N/A 73 73 99 S3 29.88R CLINTON CLOUDY 75 75 100 CALM 29.91S ELIZABETHTOWN NOT AVBL GOLDSBORO PTCLDY 76 72 89 W3 29.91R GREENVILLE CLEAR 77 75 94 SW5 29.92R HAVELOCK CLEAR 77 74 90 SW6 29.92S KENANSVILLE CLEAR 73 73 100 CALM 29.91S FOG KINSTON CLEAR 76 74 94 SW7 29.91R NEW BERN CLEAR 76 74 93 SW7 29.92S RICHLANDS MOCLDY 74 73 97 S6 29.92S ROCKY MOUNT CLOUDY 76 75 97 S7 29.88S WASHINGTON CLEAR 76 73 92 S7 29.90S WHITEVILLE MOCLDY 76 74 94 CALM 29.93R $$ AMZ130-135-150-152-154-156-158-170-250-252-270-ANZ085-086-088-633-658-670-231100- MARINE OBSERVATIONS STATION/POSITION TIME TEMP WIND PRES WAVE SWELL AIR SEA DIR/SP/G HT/PER HT/PER (UTC) (F) (DEG/KT/KT) (MB) (FT/S) (FT/S) CHESAPEAKE LIGHT NOT AVBL 64 E VA BEACH 0950 80 79 240/ 16/ 17 1011.7 5/10 2/10 DUCK 1000 80 67 230/ 12/ 19 1011.4 2 E DUCK 1000 70 N/A 2/10 2/11 OREGON INLET 1000 81 84 230/ 16/ 19 1012.2 13E OREGON INLT 0948 78 N/A 4/10 3/10 HATTERAS CG 1000 80 83 230/ 8/ 12 1012.7 DIAMOND BUOY 0950 83 85 250/ 17/ 19 1012.6 4/10 3/10 CAPE LOOKOUT 1000 82 230/ 10/ 12 1012.8 BEAUFORT LAB 1000 82 81 250/ 5/ 10 1012.4 30 SE NEW RVR IN 1008 79 84 270/ 17/ 21 1013.4 30 SE NEW RVR IN 1013 83 N/A 5/ 4 2/11 27 SE WRIGHTSVLE 1008 83 83 220/ 16/ 21 1013.1 5 SE WRIGHTSVLE 1008 81 84 260/ 12/ 16 1013.2 225 S CAPE HAT 0950 82 84 240/ 4/ 6 1015.0 3/ 9 3/ 9 41 SE CHARLESTON 1010 83 84 230/ 12/ 16 1013.8 $$

USA.gov is the U.S. government's official web portal to all federal, state and local government web resources and services.